www.pogodaiklimat.ru

Погода и климат >> Архив погоды >> Индонезия >> Джакарта порт


ПОГОДА в Джакарта порту

  • Прогноз погоды в Джакарта порту
  • Монитор погоды в Джакарта порту

АРХИВ ПОГОДЫ в Джакарта порту

Время (UTC), дата Ветер
(напр.,м/с)
 
Видим.   Явления Облачность Т
(С)
Тd
(С)
f
(%)
Тe
(С)
Тes
(С)
Комфортность P
(гПа)
Po
(гПа)
Тmin
(С)
Tmax
(С)
R
(мм)
R24
(мм)
S
(см)
00 18.06 штиль 0 8000 м 8/3 600 м
[Sc As trans Ci fib]
+26.4 +21.7 75 +34 +34 очень
душно
1011.3 1010.9 +25.8
03 18.06 В 5 10 км 5/1 600 м
[Sc As trans Ci fib]
+31.4 +22.4 59 +41 +46 опасность
перегрева
1011.6 1011.2
06 18.06 В 5 10 км 8/4 600 м
[Sc As trans Ci fib]
+32.8 +23.1 57 +43 +47 опасность
перегрева
1009.7 1009.3
09 18.06 В 5 10 км 5/1 600 м
[Sc As trans Ci fib]
+32.4 +22.9 57 +42 +44 опасность
перегрева
1009.0 1008.6
12 18.06 В 5 5000 м 8/1 600 м
[Sc As trans Cs]
+29.2 +23.8 73 +40 +40 очень
душно
1010.5 1010.1 +33.0
15 18.06 ЮВ 3 4000 м 5/1 600 м
[Sc As trans Ci fib]
+28.0 +24.0 79 +39 +39 очень
душно
1011.8 1011.4
18 18.06 Ю 2 5000 м 5/1 600 м
[Sc As trans Ci fib]
+27.2 +23.7 81 +37 +37 очень
душно
1011.2 1010.8
21 18.06 Ю 2 5000 м 5/1 600 м
[Sc As trans Ci fib]
+26.4 +23.4 84 +36 +36 очень
душно
1010.4 1010.0
00 19.06 ЮВ 2 7000 м 5/1 600 м
[Sc diur, vesp Ac As Cs]
+26.2 +22.4 80 +34 +35 очень
душно
1011.1 1010.7 +25.8
03 19.06 В 3 10 км 4/1 600 м
[Sc As trans Ci fib]
+31.4 +21.8 57 +40 +49 очень
душно
1011.4 1011.0
06 19.06 В 3 10 км 4/1 600 м
[Sc As trans Ci fib]
+34.0 +21.5 48 +42 +52 опасность
перегрева
1009.3 1008.9
09 19.06 СВ 7 10 км 4/1 600 м
[Sc As trans Ci fib]
+31.6 +22.7 59 +41 +42 опасность
перегрева
1008.3 1007.9
12 19.06 В 3 5000 м 5/1 600 м
[Sc As trans Ci fib]
+29.6 +23.3 69 +40 +40 очень
душно
1008.9 1008.5 +34.0
15 19.06 штиль 0 5000 м 8/3 600 м
[Sc As trans Ci fib]
+28.4 +23.2 73 +38 +38 очень
душно
1011.2 1010.8
18 19.06 штиль 0 5000 м 8/3 600 м
[Sc As op Ci fib]
+27.9 +23.3 76 +38 +38 очень
душно
1011.6 1011.2
21 19.06 штиль 0 5000 м 8/3 600 м
[Sc As trans Ci fib]
+27.0 +22.9 78 +36 +36 очень
душно
1010.7 1010.3
00 20.06 ЮВ 2 8000 м 9/3 600 м
[Sc Ac und Ci fib]
+27.0 +22.5 76 +35 +36 очень
душно
1011.3 1010.9 +26.2
03 20.06 ЮВ 3 10 км 8/3 600 м
[Sc Ac und Ci fib]
+31.0 +21.3 56 +39 +44 очень
душно
1011.5 1011.1
06 20.06 СВ 3 12 км 8/3 630 м
[Sc As op Ci fib]
+34.6 +21.0 45 +42 +48 опасность
перегрева
1009.2 1008.8
09 20.06 СВ 4 12 км 8/3 630 м
[Sc As trans Ci fib]
+31.8 +22.6 58 +41 +42 опасность
перегрева
1007.6 1007.2
12 20.06 СВ 3 6000 м 8/1 700 м
[Sc As trans Ci fib]
+29.2 +24.4 75 +41 +41 опасность
перегрева
1009.2 1008.8 +34.8
15 20.06 ЮВ 2 5000 м 8/3 630 м
[Sc As trans Ci fib]
+28.4 +24.4 79 +40 +40 очень
душно
1010.7 1010.3
18 20.06 штиль 0 5000 м 8/3 600 м
[Sc As trans Ci fib]
+28.0 +24.6 82 +40 +40 очень
душно
1010.4 1010.0
21 20.06 штиль 0 5000 м 8/3 600 м
[Sc As op Ci fib]
+27.0 +22.0 74 +35 +35 очень
душно
1009.7 1009.3
00 21.06 ЮВ 3 8000 м 8/3 630 м
[Sc As trans Ci fib]
+26.4 +22.3 78 +34 +35 очень
душно
1010.6 1010.2 +26.4
03 21.06 В 3 10 км 8/1 600 м
[Sc As trans Ci fib]
+30.4 +21.6 59 +38 +45 очень
душно
1010.8 1010.4
06 21.06 В 4 10 км 8/1 600 м
[Sc As trans Cs]
+32.2 +22.0 55 +41 +47 опасность
перегрева
1008.8 1008.4
09 21.06 СВ 5 10 км 5/1 600 м
[Sc As trans Cs]
+30.6 +23.1 64 +41 +42 опасность
перегрева
1007.7 1007.3
12 21.06 В 3 5000 м 6/1 600 м
[Sc As trans Cs]
+29.0 +23.9 74 +40 +40 очень
душно
1008.9 1008.5 +32.6
15 21.06 В 4 5000 м 9/3 700 м
[Sc As op Ci fib]
+28.0 +23.4 76 +38 +38 очень
душно
1010.0 1009.6
18 21.06 ЮВ 2 5000 м 9/3 700 м
[Sc As op Ci fib]
+27.4 +23.4 79 +37 +37 очень
душно
1009.5 1009.1
21 21.06 Ю 2 5000 м 9/3 700 м
[Sc As op Ci fib]
+26.8 +23.0 80 +36 +36 очень
душно
1008.8 1008.4
00 22.06 штиль 0 8000 м 8/3 700 м
[Sc As trans Ci fib]
+26.4 +22.9 81 +35 +36 очень
душно
1009.7 1009.3 +26.2
03 22.06 В 3 10 км 6/1 700 м
[Sc As trans Cs]
+30.3 +20.6 56 +37 +45 очень
душно
1010.0 1009.6
06 22.06 СВ 4 10 км 8/1 630 м
[Sc As trans Cs]
+31.6 +21.7 56 +40 +46 очень
душно
1008.4 1008.0
09 22.06 СВ 3 9000 м 10/1 630 м
[Sc As trans Cs]
+30.0 +23.4 68 +41 +42 опасность
перегрева
1007.7 1007.3
12 22.06 В 2 9000 м 10/1 630 м
[Sc As trans Cs]
+28.8 +23.3 72 +39 +39 очень
душно
1009.2 1008.8 +32.0
15 22.06 В 2 5000 м 10/3 600 м
[Sc As trans Cs]
+28.6 +24.3 78 +40 +40 очень
душно
1010.7 1010.3
18 22.06 штиль 0 5000 м 9/4 600 м
[Sc As trans Cs]
+28.2 +24.5 80 +40 +40 очень
душно
1009.7 1009.3
21 22.06 штиль 0 5000 м 9/4 600 м
[St As trans Cs]
+27.6 +23.6 79 +38 +38 очень
душно
1009.4 1009.0
00 23.06 штиль 0 7000 м 9/1 600 м
[Sc As trans Cs]
+26.6 +23.6 84 +36 +37 очень
душно
1010.8 1010.4 +26.4
03 23.06 ЮВ 3 9000 м 9/3 600 м
[Sc As trans Cs]
+30.3 +23.1 65 +40 +45 очень
душно
1011.2 1010.8
06 23.06 СЗ 2 9000 м 10/3 630 м
[Sc As trans Cs]
+32.0 +23.6 61 +43 +49 опасность
перегрева
1009.2 1008.8
09 23.06 С 3 9000 м 9/1 660 м
[Sc As trans Cs]
+30.3 +23.9 69 +42 +43 опасность
перегрева
1008.3 1007.9
12 23.06 СВ 2 5000 м 10/3 600 м
[Sc As op Cs]
+29.4 +24.7 76 +42 +42 опасность
перегрева
1009.9 1009.5 +32.0
15 23.06 В 2 5000 м 9/3 700 м
[Sc As op Ci fib]
+29.0 +25.1 80 +42 +42 опасность
перегрева
1011.1 1010.7
18 23.06 ЮВ 2 5000 м 9/3 700 м
[Sc As op Ci fib]
+28.2 +25.1 83 +41 +41 опасность
перегрева
1010.8 1010.4
21 23.06 Ю 2 5000 м 9/3 700 м
[Sc As op Ci fib]
+27.0 +24.1 84 +37 +37 очень
душно
1010.3 1009.9
00 24.06 ЮВ 2 7000 м 9/4 630 м
[Sc Ac As Ci fib]
+27.2 +24.3 84 +38 +38 очень
душно
1011.6 1011.2 +26.6
03 24.06 В 3 10 км 9/3 630 м
[Sc Ac As Cs]
+30.8 +22.1 60 +40 +44 очень
душно
1012.2 1011.8
06 24.06 СВ 3 10 км 10/4 600 м
[Sc Ac As Cs]
+32.8 +22.1 53 +41 +45 опасность
перегрева
1010.3 1009.9
09 24.06 СВ 5 12 км 8/3 600 м
[Sc Ac As Cs]
+31.4 +22.7 60 +41 +42 опасность
перегрева
1009.3 1009.0
12 24.06 ЮВ 4 5000 м 8/1 660 м
[Sc Ac As Cs]
+29.6 +24.0 72 +41 +41 опасность
перегрева
1010.7 1010.4 +32.8
15 24.06 ЮВ 3 6000 м 8/3 700 м
[Sc As trans Ci fib]
+28.4 +24.4 79 +40 +40 очень
душно
1012.5 1012.1
18 24.06 Ю 2 5000 м 9/3 700 м
[Sc As op Ci fib]
+27.8 +24.4 82 +39 +39 очень
душно
1011.8 1011.4

 

Местоположение метеостанции Джакарта порт (Индонезия): широта -6.10 долгота 106.87 высота над уровнем моря 2 м.

В архиве по умолчанию представлена погода в Джакарта порту за последнюю неделю. Архивные данные за месяц целиком и за предыдущие месяцы, начиная с января 2011 года, Вы можете получить, выбрав интересующий диапазон дат из раскрывающегося списка и нажав кнопку "Ввод!".


*Определитесь, кто Вы:
робот инопланетянин человек

Внимание! Время в таблицах - всемирное. Для получения местного времени необходимо прибавить поправку, которая равна 7 ч.

Смотрите также архив погоды в соседних городах и на ближайших метеорологических станциях:

Погода в Джакарте (Индонезия) (10 км)
Погода в Аэропорту Сукарно-Хатта (Индонезия) (24 км)
Погода в Чуруге (Индонезия) (28 км)
Погода в Цитеко (Индонезия) (67 км)
Погода в Серанге (Индонезия) (82 км)
Погода в Бандунге (Индонезия) (119 км)
Погода в Сиребоне (Индонезия) (170 км)
Погода в Танджунгкаранге (Индонезия) (218 км)
Погода в Тегале (Индонезия) (265 км)
Погода в Чилачапе (Индонезия) (298 км)

Пояснения к столбцам:

Ветер - указаны скорость ветра в м/с - средняя за 10 мин, порывы в срок и между сроками (в фигурных скобках) и направление, откуда дует ветер: С - северный, СВ - северо-восточный, В - восточный, ЮВ - юго-восточный, Ю - южный, ЮЗ - юго-западный, З - западный, СЗ - северо-западный.
Видимость - горизонтальная дальность видимости в метрах или километрах. При видимости от 1 до 10 км при отсутствии осадков обычно наблюдается дымка, при ухудшении видимости до 1 км и менее - туман. В сухую погоду видимость может ухудшаться дымом, пылью или мглою.
Явления - указаны атмосферные явления, наблюдавшиеся в срок или в последний час перед сроком; фигурными скобками обозначены явления, наблюдавшиеся между сроками (за 1-3 часа до срока); квадратными скобками обозначены град или гололедные отложения с указанием их диаметра в мм.
Облачность - указаны через наклонную черту общая и нижняя облачность в баллах и высота нижней границы облаков в метрах; квадратными скобками обозначены формы облаков: Ci - перистые, Cs - перисто-слоистые, Cc - перисто-кучевые, Ac - высококучевые, As - высокослоистые, Sc - слоисто-кучевые, Ns - слоисто-дождевые, Cu - кучевые, Cb - кучево-дождевые. Подробнее классификацию облаков см. в Атласе облаков (PDF).
T - Температура воздуха - температура, измеренная на высоте 2 м над землей.
Td - Температура точки росы - температура, при понижении до которой содержащийся в воздухе водяной пар достигнет насыщения.
f - Относительная влажность воздуха - влажноcть воздуха, измеренная на высоте 2 м над землей.
Te - Эффективная температура - температура, которую ощущает одетый по сезону человек в тени. Характеристика душности погоды. При расчете учитывается влияние влажности воздуха и скорости ветра на теплоощущения человека.
Tes - Эффективная температура на солнце - температура, которую ощущает человек, с поправкой на солнечный нагрев. Характеристика знойности погоды. Зависит от высоты солнца над горизонтом, облачности и скорости ветра. Ночью, в пасмурную погоду, а также при ветре 12 м/с и более поправка равна нулю.
P - Атмосферное давление - приведенное к уровню моря атмосферное давление.
Po - Атмосферное давление - измеренное на уровне метеостанции атмосферное давление.
Tmin - Минимальная температура - минимум температуры воздуха на высоте 2 м над землей.
Tmax - Максимальная температура - максимум температуры воздуха на высоте 2 м над землей.
R - Количество осадков - Количество выпавших осадков за период времени, мм. При наведении курсора мыши на число - период времени, за который выпало указанное количество осадков.
R24 - Количество осадков - Количество выпавших осадков за 24 часа, мм.
S - Снежный покров - Высота снежного покрова, см. При наведении курсора мыши на число - состояние снежного покрова и степень покрытия местности в баллах.